TimeCDT,TemperatureF,Dew PointF,Humidity,Sea Level PressureIn,VisibilityMPH,Wind Direction,Wind SpeedMPH,Gust SpeedMPH,PrecipitationIn,Events,Conditions,WindDirDegrees,DateUTC
12:57 AM,75.0,68.0,79,30.00,10.0,SE,6.9,-,N/A,,Scattered Clouds,140,2013-06-15 05:57:00
1:57 AM,75.0,66.9,76,29.99,10.0,SE,10.4,-,N/A,,Partly Cloudy,140,2013-06-15 06:57:00
2:57 AM,75.0,66.0,73,29.99,10.0,SE,8.1,-,N/A,,Partly Cloudy,140,2013-06-15 07:57:00
3:57 AM,73.0,64.9,76,29.99,10.0,SE,5.8,-,N/A,,Clear,140,2013-06-15 08:57:00
4:57 AM,72.0,64.9,78,29.99,10.0,SSE,6.9,-,N/A,,Clear,150,2013-06-15 09:57:00
5:57 AM,72.0,64.0,76,30.00,10.0,SE,4.6,-,N/A,,Clear,140,2013-06-15 10:57:00
6:57 AM,72.0,64.0,76,30.00,10.0,SSE,5.8,-,N/A,,Clear,160,2013-06-15 11:57:00
7:44 AM,73.4,64.4,73,30.05,10.0,SSE,5.8,-,N/A,,Partly Cloudy,160,2013-06-15 12:44:00
7:57 AM,73.9,64.0,71,30.00,10.0,SSE,6.9,-,N/A,,Partly Cloudy,150,2013-06-15 12:57:00
8:57 AM,79.0,64.9,62,30.01,10.0,SE,9.2,-,N/A,,Clear,130,2013-06-15 13:57:00
9:57 AM,82.0,66.0,58,30.02,10.0,ESE,6.9,-,N/A,,Clear,120,2013-06-15 14:57:00
10:57 AM,86.0,68.0,55,30.02,10.0,SSE,6.9,-,N/A,,Partly Cloudy,150,2013-06-15 15:57:00
11:57 AM,88.0,71.1,57,30.00,10.0,South,5.8,-,N/A,,Clear,180,2013-06-15 16:57:00
12:57 PM,91.0,71.1,52,29.98,10.0,South,8.1,-,N/A,,Scattered Clouds,180,2013-06-15 17:57:00
1:57 PM,89.1,71.1,55,29.97,10.0,SSE,10.4,-,N/A,,Mostly Cloudy,160,2013-06-15 18:57:00
2:18 PM,89.6,69.8,52,30.00,10.0,SSE,11.5,-,N/A,Thunderstorm,Scattered Clouds,160,2013-06-15 19:18:00
2:33 PM,89.6,69.8,52,30.00,10.0,SSE,16.1,19.6,N/A,,Partly Cloudy,150,2013-06-15 19:33:00
2:48 PM,89.6,71.6,55,30.00,10.0,East,16.1,21.9,N/A,,Scattered Clouds,90,2013-06-15 19:48:00
2:57 PM,86.0,70.0,59,29.94,10.0,East,18.4,26.5,N/A,,Scattered Clouds,80,2013-06-15 19:57:00
3:08 PM,82.4,69.8,66,30.00,10.0,East,13.8,21.9,N/A,Thunderstorm,Mostly Cloudy,90,2013-06-15 20:08:00
3:24 PM,80.6,69.8,70,30.00,10.0,East,8.1,-,N/A,,Mostly Cloudy,100,2013-06-15 20:24:00
3:57 PM,80.1,70.0,71,29.96,10.0,ESE,9.2,-,N/A,,Overcast,110,2013-06-15 20:57:00
4:57 PM,81.0,71.1,72,29.96,10.0,Calm,Calm,-,N/A,,Mostly Cloudy,0,2013-06-15 21:57:00
5:57 PM,82.9,70.0,65,29.97,10.0,West,4.6,-,N/A,,Partly Cloudy,260,2013-06-15 22:57:00
6:28 PM,78.8,69.8,74,30.03,10.0,NW,18.4,23.0,N/A,,Overcast,310,2013-06-15 23:28:00
6:33 PM,77.0,69.8,78,30.04,10.0,NW,16.1,23.0,N/A,Thunderstorm,Overcast,310,2013-06-15 23:33:00
6:54 PM,75.2,68.0,78,30.04,10.0,NNW,15.0,25.3,N/A,,Overcast,330,2013-06-15 23:54:00
6:57 PM,75.0,68.0,79,30.00,10.0,NNW,13.8,25.3,N/A,Thunderstorm,Overcast,340,2013-06-15 23:57:00
7:15 PM,73.4,68.0,83,30.05,10.0,NNW,10.4,21.9,N/A,,Mostly Cloudy,330,2013-06-16 00:15:00
7:33 PM,71.6,66.2,83,30.05,10.0,North,8.1,-,N/A,,Scattered Clouds,360,2013-06-16 00:33:00
7:57 PM,71.1,66.9,87,30.02,10.0,NNW,4.6,-,N/A,,Clear,340,2013-06-16 00:57:00
8:21 PM,71.6,66.2,83,30.08,10.0,WNW,9.2,-,0.00,Rain-Thunderstorm,Rain,300,2013-06-16 01:21:00
8:44 PM,71.6,66.2,83,30.07,10.0,NNW,4.6,-,0.06,Rain,Rain,340,2013-06-16 01:44:00
8:57 PM,70.0,66.9,90,30.04,8.0,Calm,Calm,-,0.11,Rain,Rain,0,2013-06-16 01:57:00
9:57 PM,69.1,66.9,93,29.96,10.0,East,18.4,-,0.05,,Overcast,90,2013-06-16 02:57:00
10:50 PM,69.8,68.0,94,30.07,10.0,SSW,12.7,-,N/A,,Mostly Cloudy,200,2013-06-16 03:50:00
10:57 PM,70.0,68.0,93,30.03,10.0,South,13.8,-,N/A,,Mostly Cloudy,180,2013-06-16 03:57:00
11:02 PM,69.8,68.0,94,30.07,10.0,South,13.8,-,N/A,,Overcast,180,2013-06-16 04:02:00
11:57 PM,70.0,68.0,93,29.99,10.0,ESE,11.5,-,0.01,Rain,Light Rain,110,2013-06-16 04:57:00